THORAD AGENA D DEB, 4653

Orbit data source: Space-Track

THORAD AGENA D DEB, 4653 is space debris in SSO originally from a launch on Wed, 08 Apr 1970 UTC launched from the Air Force Western Test Range (AFWTR). Debris objects in space refer to the collection of defunct objects orbiting the Earth. Examples of debris include non-operational satellites, rocket bodies, and fragments generated from explosions, collisions, or faulty payload assembly.

Loading next visibility...
Identifier
4653, 1970-025AM
Orbit
SSO
Country
Flag of USUS
Related business
Manufacturer
Unknown
Mission
Spacecraft
Bus & Motor
Unknown
Mass
Unknown
Launch date (UTC)
1970-04-08 (56 years ago)
Launch vehicle
Unknown
Launch site
Air Force Western Test Range (AFWTR)
Object type
Payload
Rocket body
Debris
Shape & HBR
Unknown shape, 0.1 m
Radar Cross Section
Medium (>0.1 m² and <1 m²)

Expand to show TLE details & history
Last TLE update: 1 day ago

TLE from 1 day ago
0 THORAD AGENA D DEB
1 04653U 70025AM  26255.43441666  .00009156  00000-0  15538-2 0  9991
2 04653  99.9963 230.2470 0013047  26.5297 333.6568 14.69449245880018
Epoch: 2026-09-12T10:25Z
TLE epoch observation values (Epoch: 2026-09-12T10:25:33.599Z)
Latitude
0.00003°
Longitude
82.41353°
Altitude
657.532 km
Speed
7.533 km/s
True Right ascension
15h 20m 59s
True Declination
0° 00' 00"
Sunlit
Object was in daylight at epoch
Visualization orbit readout
Latitude
Unknown
Longitude
Unknown
Altitude
Unknown
Speed
Unknown
Apparent Right ascension
Unknown
Apparent Declination
Unknown
Sunlit
N/A
Visualization observer readout
Local Sidereal Time
02:48:05
Azimuth
Unknown
Elevation
Unknown
Doppler factor
Unknown
Orbital elements
Apogee altitude
669.17 km
Perigee altitude
650.805 km
Semi-major axis
7,038.124 km
Eccentricity
0.0013
Inclination
99.9963°
RAAN
230.247°
Arg. of periapsis
26.5297°
True anomaly
333.59036°
Mean anomaly
333.6568°
Eccentric anomaly
333.62359°
Mean motion
3.67585 °/min
Orbital period
97.94 mins
BSTAR
0.0015538
Loading maneuver chart data...
Computing Atmospheric mass density...

Documentation

Showing up to 5 results
|